Location: Buckland
(65.9785°N, 161.1281°W)
Time: 22:06:28
(UTC+00:00)

PRISM - Pass Details

Date: 18 January 2021
Orbit: 565 x 584 km, 98.2° (Epoch: 06 March)

Event Time Altitude Azimuth Distance (km) Brightness Sun altitude
Rises 17:42:47 0° 32° (NNE) 2,782 ? -13.8°
Reaches altitude 10° 17:46:14 10° 1° (N) 1,885 ? -13.5°
Maximum altitude 17:47:41 12° 340° (NNW) 1,775 ? -13.4°
Enters shadow 17:47:57 12° 336° (NNW) 1,779 ? -13.4°
